Weather reports worldwide

Advertisment
Ponza, Italy (16280): temperature & dewpoint: 10.11.2018 05:00:00 - 16.11.2018 05:00:00 (CET)Ponza, Italy (16280): wind speed: 10.11.2018 05:00:00 - 16.11.2018 05:00:00 (CET)Ponza, Italy (16280): wind direction: 10.11.2018 05:00:00 - 16.11.2018 05:00:00 (CET)Ponza, Italy (16280): reduced air pressure: 10.11.2018 05:00:00 - 16.11.2018 05:00:00 (CET)Ponza, Italy (16280): visibility: 10.11.2018 05:00:00 - 16.11.2018 05:00:00 (CET)Ponza, Italy (16280): sunshine duration: 10.11.2018 05:00:00 - 16.11.2018 05:00:00 (CET)
Date & Time tt [°C] td [°C] ff [km/h] ff [kn] dd ppp [hPa] vv [km] sd [min]
16.11.2018 05:00:00 - - - - - - - -
16.11.2018 04:00:00 15,4 12,0 22 12 E 1017,3 10 -
16.11.2018 03:00:00 15,4 12,0 16 9 E 1017,7 10 -
16.11.2018 02:00:00 - - - - - - - -
16.11.2018 01:00:00 15,8 12,2 21 11 ENE 1018,4 15 -
16.11.2018 00:00:00 16,0 13,3 18 10 ENE 1018,3 15 -
15.11.2018 23:00:00 16,2 13,5 15 8 ENE 1018,7 15 -
15.11.2018 22:00:00 16,2 13,1 15 8 SSW 1018,7 15 -
15.11.2018 21:00:00 16,0 13,3 13 7 NNE 1018,7 10 -
15.11.2018 20:00:00 16,0 12,9 8 4 NNE 1018,8 10 -
15.11.2018 19:00:00 16,0 12,7 4 2 N 1019,0 10 -
15.11.2018 18:00:00 16,2 13,9 4 2 N 1019,6 10 -
15.11.2018 17:00:00 16,2 13,7 2 1 NE 1019,7 10 12
15.11.2018 16:00:00 16,8 14,3 2 1 ESE 1019,8 15 60
15.11.2018 15:00:00 17,6 14,5 4 2 SE 1019,8 20 60
15.11.2018 14:00:00 17,8 14,1 11 6 ESE 1019,9 25 60
15.11.2018 13:00:00 18,4 13,9 11 6 E 1020,5 20 60
15.11.2018 12:00:00 18,2 13,9 16 9 ENE 1020,8 20 60
15.11.2018 11:00:00 18,0 14,3 16 9 E 1021,4 20 60
15.11.2018 10:00:00 17,4 14,1 16 9 E 1021,5 20 60
15.11.2018 09:00:00 16,8 13,5 15 8 E 1021,4 20 60
15.11.2018 08:00:00 16,0 13,8 16 9 E 1021,1 20 30
15.11.2018 07:00:00 15,8 13,8 15 8 E 1021,1 20 -
15.11.2018 06:00:00 16,0 13,8 18 10 E 1021,0 20 -
15.11.2018 05:00:00 16,0 14,5 18 10 E 1021,0 20 -
15.11.2018 04:00:00 16,0 14,2 13 7 E 1021,2 20 -
15.11.2018 03:00:00 16,4 14,4 15 8 E 1021,4 20 -
15.11.2018 02:00:00 16,0 13,5 13 7 E 1021,7 20 -
15.11.2018 01:00:00 16,0 15,4 13 7 E 1022,0 20 -
15.11.2018 00:00:00 16,0 15,0 13 7 NNE 1022,6 20 -
14.11.2018 23:00:00 15,8 14,8 13 7 NNE 1022,7 20 -
14.11.2018 22:00:00 16,0 15,4 11 6 N 1022,8 20 -
14.11.2018 21:00:00 16,0 15,4 13 7 NNW 1022,8 20 -
14.11.2018 20:00:00 16,2 15,1 9 5 NNW 1022,8 20 -
14.11.2018 19:00:00 16,0 15,2 11 6 WNW 1022,7 20 -
14.11.2018 18:00:00 15,8 14,2 9 5 NW 1022,8 20 -
14.11.2018 17:00:00 15,4 14,4 8 4 NNW 1023,1 20 -
14.11.2018 16:00:00 16,6 14,4 9 5 NNW 1023,1 20 60
14.11.2018 15:00:00 17,4 14,9 13 7 WNW 1023,1 20 60
14.11.2018 14:00:00 17,0 13,5 11 6 W 1024,4 20 60
14.11.2018 13:00:00 17,2 15,2 5 3 WNW 1024,4 20 60
14.11.2018 12:00:00 16,8 14,6 13 7 N 1025,2 20 60
14.11.2018 11:00:00 16,6 14,4 9 5 NNW 1025,5 20 60
14.11.2018 10:00:00 16,4 14,4 13 7 NW 1025,5 20 60
14.11.2018 09:00:00 16,2 13,9 15 8 NNW 1025,2 20 60
14.11.2018 08:00:00 16,0 13,8 11 6 WNW 1025,1 20 24
14.11.2018 07:00:00 15,8 14,0 15 8 NNW 1025,1 20 -
14.11.2018 06:00:00 16,0 14,2 18 10 NNW 1025,1 30 -
14.11.2018 05:00:00 16,0 13,8 16 9 NNW 1025,1 30 -
14.11.2018 04:00:00 16,2 14,4 11 6 WNW 1025,1 20 -
14.11.2018 03:00:00 16,2 14,4 16 9 WNW 1025,9 20 -
14.11.2018 02:00:00 16,6 16,4 15 8 WNW 1025,9 20 -
14.11.2018 01:00:00 16,8 15,7 21 11 WNW 1026,2 30 -
14.11.2018 00:00:00 16,8 15,8 16 9 WNW 1026,3 30 -
13.11.2018 23:00:00 16,8 15,8 18 10 WNW 1026,6 30 -
13.11.2018 22:00:00 16,8 15,8 15 8 WNW 1026,6 20 -
13.11.2018 21:00:00 17,0 15,7 18 10 WNW 1026,5 20 -
13.11.2018 20:00:00 16,8 15,8 18 10 WNW 1026,4 20 -
13.11.2018 19:00:00 16,8 16,2 16 9 WNW 1026,3 20 -
13.11.2018 18:00:00 16,8 16,5 15 8 WNW 1026,3 20 -
13.11.2018 17:00:00 16,8 16,2 13 7 WNW 1026,2 10 0
13.11.2018 16:00:00 17,4 16,2 0 0 N 1026,1 20 30
13.11.2018 15:00:00 17,8 17,0 0 0 N 1026,4 20 36
13.11.2018 14:00:00 18,2 16,9 5 3 N 1027,0 20 60
13.11.2018 13:00:00 17,8 16,3 4 2 S 1026,9 10 42
13.11.2018 12:00:00 18,0 16,7 2 1 ENE 1027,3 10 30
13.11.2018 11:00:00 17,8 16,8 0 0 N 1027,4 10 42
13.11.2018 10:00:00 18,4 17,3 5 3 NE 1027,0 10 60
13.11.2018 09:00:00 16,6 16,3 0 0 N 1027,1 20 42
13.11.2018 08:00:00 15,6 15,6 4 2 NNE 1027,1 20 0
13.11.2018 07:00:00 15,2 14,9 4 2 NE 1026,5 20 -
13.11.2018 06:00:00 15,0 14,8 4 2 NE 1026,7 20 -
13.11.2018 05:00:00 15,2 14,9 0 0 N 1026,7 20 -
13.11.2018 04:00:00 15,2 15,2 0 0 N 1026,6 20 -
13.11.2018 03:00:00 15,4 15,1 0 0 N 1026,5 20 -
13.11.2018 02:00:00 15,4 14,6 4 2 NNW 1026,5 20 -
13.11.2018 01:00:00 15,6 14,6 0 0 N 1026,3 20 -
13.11.2018 00:00:00 15,4 15,1 0 0 N 1026,3 20 -
12.11.2018 23:00:00 16,0 15,4 0 0 N 1026,1 20 -
12.11.2018 22:00:00 16,0 15,7 4 2 N 1026,1 20 -
12.11.2018 21:00:00 16,2 14,7 0 0 N 1026,0 20 -
12.11.2018 20:00:00 16,6 14,6 0 0 N 1025,7 20 -
12.11.2018 19:00:00 16,8 14,4 2 1 S 1025,4 20 -
12.11.2018 18:00:00 17,0 15,4 0 0 N 1025,2 20 -
12.11.2018 17:00:00 17,2 15,4 5 3 SE 1025,1 20 30
12.11.2018 16:00:00 17,6 15,8 0 0 N 1025,0 20 60
12.11.2018 15:00:00 19,4 16,4 2 1 ENE 1024,8 20 60
12.11.2018 14:00:00 19,6 16,8 2 1 E 1024,7 20 60
12.11.2018 13:00:00 19,0 15,9 5 3 E 1025,0 20 60
12.11.2018 12:00:00 18,6 15,5 9 5 E 1025,3 20 60
12.11.2018 11:00:00 17,6 15,0 9 5 E 1025,8 15 60
12.11.2018 10:00:00 17,0 15,0 11 6 E 1025,0 10 60
12.11.2018 09:00:00 17,6 15,8 5 3 E 1024,8 10 48
12.11.2018 08:00:00 17,2 16,9 5 3 E 1024,0 10 60
12.11.2018 07:00:00 15,8 15,5 4 2 ENE 1024,0 10 0
12.11.2018 06:00:00 16,0 15,4 4 2 NNE 1023,3 10 -
12.11.2018 05:00:00 16,0 15,2 5 3 NE 1023,4 10 -
12.11.2018 04:00:00 16,0 15,4 4 2 NNW 1023,0 10 -
12.11.2018 03:00:00 16,4 15,9 4 2 NNW 1023,0 10 -
12.11.2018 02:00:00 16,4 15,9 4 2 NNE 1023,0 10 -
12.11.2018 01:00:00 16,4 15,9 4 2 NE 1023,0 10 -
12.11.2018 00:00:00 16,4 15,8 4 2 ENE 1022,9 10 -
11.11.2018 23:00:00 16,4 15,8 4 2 NNE 1022,8 10 -
11.11.2018 22:00:00 16,4 15,8 4 2 NNW 1022,2 10 -
11.11.2018 21:00:00 16,6 16,0 15 8 NNW 1022,1 10 -
11.11.2018 20:00:00 16,8 16,2 5 3 NW 1021,9 10 -
11.11.2018 19:00:00 16,8 15,8 5 3 NW 1021,6 10 -
11.11.2018 18:00:00 17,0 15,4 4 2 WNW 1020,4 10 -
11.11.2018 17:00:00 17,0 15,4 4 2 WSW 1020,6 20 0
11.11.2018 16:00:00 16,8 15,0 5 3 ESE 1020,5 20 60
11.11.2018 15:00:00 18,0 16,0 4 2 ESE 1020,1 25 60
11.11.2018 14:00:00 19,0 16,2 8 4 E 1019,7 25 60
11.11.2018 13:00:00 19,8 16,3 5 3 E 1019,8 30 60
11.11.2018 12:00:00 20,0 16,4 8 4 E 1019,8 30 60
11.11.2018 11:00:00 19,4 16,1 4 2 NE 1019,7 30 60
11.11.2018 10:00:00 18,4 15,7 5 3 E 1019,3 30 60
11.11.2018 09:00:00 17,6 15,4 9 5 E 1018,8 30 60
11.11.2018 08:00:00 16,4 15,3 5 3 E 1018,3 30 24
11.11.2018 07:00:00 16,0 15,4 5 3 E 1017,4 30 -
11.11.2018 06:00:00 16,0 14,7 8 4 ESE 1017,0 30 -
11.11.2018 05:00:00 16,0 15,7 4 2 E 1016,7 30 -
11.11.2018 04:00:00 16,0 15,7 4 2 E 1016,7 30 -
11.11.2018 03:00:00 15,8 15,0 4 2 NNE 1016,7 30 -
11.11.2018 02:00:00 15,8 15,0 8 4 NNE 1016,4 30 -
11.11.2018 01:00:00 15,8 14,5 9 5 NE 1016,2 30 -
11.11.2018 00:00:00 15,8 14,5 9 5 NE 1017,1 30 -
10.11.2018 23:00:00 16,0 12,5 9 5 NE 1015,9 30 -
10.11.2018 22:00:00 16,0 13,1 9 5 NE 1015,9 30 -
10.11.2018 21:00:00 16,0 13,1 8 4 NNE 1015,5 30 -
10.11.2018 20:00:00 16,0 13,7 8 4 NE 1015,1 30 -
10.11.2018 19:00:00 16,2 14,6 5 3 NE 1014,9 30 -
10.11.2018 18:00:00 16,4 14,4 4 2 SE 1014,3 30 -
10.11.2018 17:00:00 16,4 14,4 8 4 ESE 1014,1 30 -
10.11.2018 16:00:00 17,0 14,5 8 4 ESE 1014,2 20 60
10.11.2018 15:00:00 17,0 14,3 9 5 ESE 1013,9 30 60
10.11.2018 14:00:00 18,0 14,9 11 6 E 1014,1 20 60
10.11.2018 13:00:00 18,0 15,4 15 8 E 1014,2 20 60
10.11.2018 12:00:00 17,6 16,1 16 9 E 1014,7 10 60
10.11.2018 11:00:00 17,4 15,7 18 10 E 1015,2 10 36
10.11.2018 10:00:00 16,0 14,7 16 9 E 1014,7 10 48
10.11.2018 09:00:00 15,4 14,4 16 9 E 1014,9 10 60
10.11.2018 08:00:00 15,0 13,9 15 8 ESE 1014,9 10 36
10.11.2018 07:00:00 15,0 13,9 18 10 ESE 1014,9 10 0
10.11.2018 06:00:00 - - - - - - - -
10.11.2018 05:00:00 15,0 12,9 15 8 ESE 1015,8 10 -

tt = temperature
td = dewpoint
ff = wind speed
dd = wind direction
ppp = reduced air pressure
vv = visibility
sd = sunshine duration

Next stations